User: anonymous   Login
Location: Unspecified
(0.0000°N, 0.0000°E)
Time: 22:55:35
(UTC+02:00)
Language:

Cosmos 494 Rocket - Orbit

View from above orbital plane
View from above orbital plane
View from above satellite
View from above satellite

Ground track
Ground track

The orbit data is extracted from the following two-line orbital elements,

1 06061U 72043B   18113.90857428  .00000006  00000-0  10231-4 0  9993
2 06061  74.0560 326.2551 0019695  16.2581 343.9202 14.40529999403051
Epoch (UTC): 23 April 2018 21:48:20
Eccentricity: 0.0019695
inclination: 74.0560°
perigee height: 742 km
apogee height: 771 km
right ascension of ascending node: 326.2551°
argument of perigee: 16.2581°
revolutions per day: 14.40529999
mean anomaly at epoch: 343.9202°
orbit number at epoch: 40305

The dashed part of the orbit path shows where the satellite is in the earth's shadow,  

DLR